Location: downtown San Diego
(32.7310°N, 117.1990°W)
Time: 14:13:15
(UTC-08:00)

Cosmos 2181 Rocket - Pass Details

Date: 12 July 2018
Orbit: 951 x 1016 km, 82.9° (Epoch: 19 November)

Event Time Altitude Azimuth Distance (km) Brightness Sun altitude
Exits shadow 22:18:06 52° 135° (SE) 1,183 4.0 -23.9°
Maximum altitude 22:19:14 61° 92° (E) 1,087 4.0 -24.0°
Drops below altitude 10° 22:25:15 10° 14° (NNE) 2,688 6.8 -24.8°
Sets 22:27:46 0° 11° (N) 3,633 7.6 -25.2°
